This is the latest recevied weather packets stored in our database for station/object KA5FVT. If no packets are shown the sender has not sent any weather packets the latest 10 day(s).
| Time | Temp. | Humidity | Pressure | Rain* | Wind** | Luminosity | Snow |
|---|---|---|---|---|---|---|---|
| 1777770269 | 22.22° C | 51% | 1018.7 hPa | 0 mm | - | - | - |
| 1777769967 | 22.22° C | 52% | 1018.7 hPa | 0 mm | - | - | - |
| 1777767866 | 23.33° C | 50% | 1018.1 hPa | 0 mm | - | - | - |
| 1777764569 | 26.11° C | 42% | 1017.9 hPa | 0 mm | - | - | - |
| 1777763966 | 26.11° C | 42% | 1018 hPa | 0 mm | - | - | - |
| 1777760969 | 25.56° C | 43% | 1018 hPa | 0 mm | - | - | - |
| 1777760366 | 25° C | 45% | 1018 hPa | 0 mm | - | - | - |
| 1777760066 | 25° C | 46% | 1018 hPa | 0 mm | - | - | - |
| 1777758566 | 24.44° C | 47% | 1018 hPa | 0 mm | - | - | - |
| 1777756766 | 24.44° C | 45% | 1018.2 hPa | 0 mm | - | - | - |
| 1777754666 | 24.44° C | 47% | 1018.4 hPa | 0 mm | - | - | - |
| 1777753767 | 25° C | 45% | 1018.6 hPa | 0 mm | - | - | - |
| 1777752566 | 25° C | 45% | 1018.8 hPa | 0 mm | - | - | - |
| 1777750466 | 24.44° C | 47% | 1019.3 hPa | 0 mm | - | - | - |
| 1777749566 | 23.89° C | 46% | 1019.4 hPa | 0 mm | - | - | - |
| 1777748666 | 23.89° C | 45% | 1019.5 hPa | 0 mm | - | - | - |
| 1777748069 | 23.33° C | 49% | 1019.6 hPa | 0 mm | - | - | - |
| 1777743566 | 22.78° C | 54% | 1020.2 hPa | 0 mm | - | - | - |
| 1777742369 | 22.22° C | 54% | 1020.5 hPa | 0 mm | - | - | - |
| 1777742066 | 22.22° C | 54% | 1020.5 hPa | 0 mm | - | - | - |
| 1777737567 | 18.89° C | 69% | 1020.3 hPa | 0 mm | - | - | - |
| 1777737266 | 18.89° C | 69% | 1020.2 hPa | 0 mm | - | - | - |
| 1777736667 | 18.33° C | 71% | 1020.3 hPa | 0 mm | - | - | - |
| 1777734866 | 17.22° C | 78% | 1020.2 hPa | 0 mm | - | - | - |
| 1777733667 | 16.67° C | 79% | 1020.3 hPa | 0 mm | - | - | - |
* Rain latest hour (hover to see other rain measurements)
** Current wind speed in m/s (hover to see current wind gust speed)